Regional Weather Roundup
Issued by NWS Green Bay, WI

Home | Current Version | Previous Version | Text Only | Print | Product List | Glossary On
Versions: 1 2 3 4 5 6 7 8 9 10 11 12 13 14 15 16 17 18 19 20 21 22 23 24 25 26 27 28 29 30 31 32 33 34 35 36 37 38 39 40 41 42 43 44 45 46 47 48 49 50
120
ASUS43 KGRB 251011
RWRGRB

NORTH-CENTRAL AND NORTHEAST WISCONSIN REGIONAL WEATHER ROUNDUP
NATIONAL WEATHER SERVICE GREEN BAY WI
500 AM CDT FRI MAY 25 2018

WIZ005-009-010>012-018-019-251100-
NORTH CENTRAL WISCONSIN

CITY           SKY/WX    TMP DP  RH WIND       PRES   REMARKS
IRONWOOD       FAIR      67  59  75 SW8       29.80S
MANITOWISH WTR NOT AVBL
ARBOR VITAE    FAIR      62  60  93 CALM      29.84S
EAGLE RIVER    FAIR      62  61  97 CALM      29.84S
LAND O LAKES   FAIR      63  61  93 CALM      29.84F
RHINELANDER    FAIR      65  61  87 SW5       29.86F
PHILLIPS       FAIR      63  60  91 SW5       29.85R
ANTIGO         FAIR      62  61  95 S8        29.86F
TOMAHAWK       FAIR      60  57  89 CALM      29.86S
MERRILL        FAIR      63  61  94 NW3       29.87R
$$

WIZ013-073-251100-
NORTHEAST WISCONSIN

CITY           SKY/WX    TMP DP  RH WIND       PRES   REMARKS
IRON MOUNTAIN  FAIR      63  62  97 SE6       29.83F
MARINETTE      FAIR      67  61  81 SW7       29.86F
OCONTO         FAIR      60  57  91 CALM      29.86F
$$

WIZ017-030-035>037-045-251100-
CENTRAL WISCONSIN

CITY           SKY/WX    TMP DP  RH WIND       PRES   REMARKS
MEDFORD        FAIR      65  57  76 SW6       29.86R
WAUSAU         FAIR      67  62  84 SW7       29.84F
MOSINEE        FAIR      63  61  94 S8        29.88S
MARSHFIELD     FAIR      62  61  96 SW6       29.88S
WISC RAPIDS    FAIR      67  62  84 SW3       29.89F
STEVENS POINT  FAIR      65  63  93 S7        29.89S
WAUPACA        FAIR      67  63  84 S3        29.89F
SHAWANO        FAIR      69  61  76 S3        29.86F
CLINTONVILLE   FAIR      67  60  77 S7        29.87F
WAUTOMA        FAIR      60  58  92 CALM      29.90F
$$

WIZ038-039-048-051-251100-
FOX VALLEY

CITY           SKY/WX    TMP DP  RH WIND       PRES   REMARKS
NWS GREEN BAY  FAIR      68  60  75 SW5       29.88F
APPLETON       FAIR      66  55  68 SW8       29.88F
OSHKOSH        FAIR      67  59  75 S8        29.89F
FOND DU LAC    FAIR      67  58  72 SW8       29.91F
$$

WIZ022-050-052-251100-
EAST CENTRAL WISCONSIN

CITY           SKY/WX    TMP DP  RH WIND       PRES   REMARKS
EPHRAIM        NOT AVBL
WASHINGTON ISL FAIR      58  55  87 S7        29.85F
STURGEON BAY   MOCLDY    61  56  83 CALM      29.88F
MANITOWOC      FAIR      63  55  75 S3        29.90F
SHEBOYGAN      FAIR      60  54  80 S3        29.91F
$$

LMZ563-521-522-541>543-251100-
LAKESHORE

STATION/POSITION TIME  TEMP    WIND        PRES    VSBY  WAVE
                       AIR SEA DIR/SP/G                  HT/PER
                 (UTC) (F)     (DEG/KT/KT) (MB)    (MI)  (FT/S)
SHEBOYGAN LKSHOR 1000   65     200/  6/  7 1012.7F
KEWAUNEE LKSHORE 0942   62     200/  7/  9 1011.3F
NORTHPORT PIER   0940   59     160/  3/  5 1011.2F
N MID LAKE BUOY  0950   45 38  160/ 14/ 16 1011.2F         1/ 4
SISTER BAY LKSHO 0957   69     180/  9/ 10   N/A
MENOMINEE LKSHOR 0936   66     170/  8/  9 1010.9F
$$




USA.gov is the U.S. government's official web portal to all federal, state and local government web resources and services.